This is the latest recevied weather packets stored in our database for station/object W9GWP. If no packets are shown the sender has not sent any weather packets the latest 10 day(s).
| Time | Temp. | Humidity | Pressure | Rain* | Wind** | Luminosity | Snow |
|---|---|---|---|---|---|---|---|
| 1777664516 | 6.67° C | 77% | 1046.8 hPa | 0 mm | - | 256 W/m² | - |
| 1777663615 | 6.67° C | 79% | 1046.6 hPa | 0 mm | - | 239 W/m² | - |
| 1777662713 | 6.11° C | 79% | 1046.6 hPa | 0 mm | - | 135 W/m² | - |
| 1777661812 | 6.11° C | 77% | 1046.3 hPa | 0 mm | - | 105 W/m² | - |
| 1777660910 | 7.22° C | 75% | 1046.2 hPa | 0 mm | - | 350 W/m² | - |
| 1777660006 | 6.67° C | 75% | 1045.9 hPa | 0 mm | - | 160 W/m² | - |
| 1777659103 | 7.22° C | 73% | 1046.2 hPa | 0 mm | - | 153 W/m² | - |
| 1777658200 | 6.67° C | 71% | 1045.7 hPa | 0 mm | - | 187 W/m² | - |
| 1777657297 | 7.78° C | 72% | 1045.8 hPa | 0 mm | - | 284 W/m² | - |
| 1777656393 | 8.33° C | 63% | 1046 hPa | 0 mm | - | 273 W/m² | - |
| 1777655487 | 7.78° C | 57% | 1045.8 hPa | 0 mm | - | 213 W/m² | - |
| 1777654584 | 7.78° C | 57% | 1045.9 hPa | 0 mm | - | 128 W/m² | - |
| 1777653682 | 8.33° C | 59% | 1045.7 hPa | 0 mm | - | 383 W/m² | - |
| 1777652777 | 7.78° C | 58% | 1045.7 hPa | 0 mm | - | 132 W/m² | - |
| 1777651875 | 8.33° C | 54% | 1045.8 hPa | 0 mm | - | 169 W/m² | - |
| 1777650970 | 8.89° C | 56% | 1045.8 hPa | 0 mm | - | 725 W/m² | - |
| 1777650067 | 8.33° C | 56% | 1045.7 hPa | 0 mm | - | 697 W/m² | - |
| 1777649164 | 8.33° C | 58% | 1045.7 hPa | 0 mm | - | 270 W/m² | - |
| 1777648261 | 7.78° C | 64% | 1045.6 hPa | 0 mm | - | 691 W/m² | - |
| 1777647361 | 7.78° C | 63% | 1045.7 hPa | 0 mm | - | 593 W/m² | - |
| 1777646455 | 6.67° C | 71% | 1045.7 hPa | 0 mm | - | 587 W/m² | - |
| 1777645552 | 6.67° C | 72% | 1045.7 hPa | 0 mm | - | 472 W/m² | - |
| 1777644647 | 7.22° C | 76% | 1045.6 hPa | 0 mm | - | 283 W/m² | - |
| 1777643748 | 6.67° C | 81% | 1045.7 hPa | 0 mm | - | 50 W/m² | - |
| 1777642844 | 5.56° C | 83% | 1045.7 hPa | 0 mm | - | 86 W/m² | - |
* Rain latest hour (hover to see other rain measurements)
** Current wind speed in m/s (hover to see current wind gust speed)